Weather History for KHLC - July, 2012

Change the Weather History Date:

Wednesday, July 18, 2012

  Actual Average Record
Temperature  
Mean Temperature 87 °F 80 °F  
Max Temperature 105 °F 93 °F 111 °F (1936)
Min Temperature 69 °F 66 °F 55 °F (1922)
Cooling Degree Days 20    
Growing Degree Days 36 (Base 50)    
Moisture  
Dew Point 58 °F    
Average Humidity 39    
Maximum Humidity 68    
Minimum Humidity 20    
Precipitation  
Precipitation 0.00 in 0.13 in 0.76 in (2005)
Month to date precipitation 0.38 2.17  
Year to date precipitation 5.30 13.43  
Sea Level Pressure  
Sea Level Pressure 29.81 in    
Wind  
Wind Speed 6 mph (NE)    
Max Wind Speed 15 mph    
Max Gust Speed 20 mph    
Visibility 10 miles    
Events      
T = Trace of Precipitation, MM = Missing Value Source: NWS Daily Summary

Daily Weather History Graph

Daily Weather History Graph

Search for Another Location

Airport or City:

Trip Planner

Search our weather history database for the weather conditions in past years. The results will help you decide how hot, cold, wet, or windy it might be!

Date:

Astronomy

Jul. 18, 2012 Rise Set
Actual Time 6:27 AM CDT 9:03 PM CDT
Civil Twilight 5:56 AM CDT 9:34 PM CDT
Nautical Twilight 5:17 AM CDT 10:12 PM CDT
Astronomical Twilight 4:34 AM CDT 10:56 PM CDT
Moon 6:03 AM CDT (7/18) 8:34 PM CDT (7/18)
Length of Visible Light 15h 37m
Length of Day
14h 35m
Waning Crescent, 0% of the Moon is Illuminated
Jul 18
Waning Crescent
Jul 18
New
Jul 26
First Quarter
Aug 1
Full
Aug 9
Last Quarter

Hourly Weather History & Observations

Time (CDT) Temp. Heat Index Dew Point Humidity Pressure Visibility Wind Dir Wind Speed Gust Speed Precip Events Conditions
12:53 AM 84.0 °F 83.0 °F 55.9 °F 38% 29.75 in 10.0 mi East 3.5 mph - N/A   Partly Cloudy
1:53 AM 81.0 °F 81.0 °F 57.0 °F 44% 29.75 in 10.0 mi Calm Calm - N/A   Clear
2:53 AM 78.1 °F - 55.9 °F 46% 29.74 in 10.0 mi SSE 4.6 mph - N/A   Clear
3:53 AM 75.9 °F - 55.9 °F 50% 29.74 in 10.0 mi South 4.6 mph - N/A   Clear
4:53 AM 73.9 °F - 55.9 °F 53% 29.75 in 10.0 mi SW 4.6 mph - N/A   Clear
5:53 AM 72.0 °F - 57.0 °F 59% 29.78 in 10.0 mi West 5.8 mph - N/A   Clear
6:53 AM 69.1 °F - 57.9 °F 68% 29.79 in 10.0 mi West 8.1 mph - N/A   Clear
7:53 AM 73.0 °F - 61.0 °F 66% 29.82 in 10.0 mi West 4.6 mph - N/A   Clear
8:53 AM 79.0 °F - 62.1 °F 56% 29.84 in 10.0 mi NW 10.4 mph - N/A   Clear
9:53 AM 84.9 °F 85.4 °F 62.1 °F 46% 29.85 in 10.0 mi NW 6.9 mph - N/A   Clear
10:53 AM 89.1 °F 89.3 °F 62.1 °F 40% 29.85 in 10.0 mi North 6.9 mph - N/A   Clear
11:53 AM 93.0 °F 93.8 °F 62.1 °F 36% 29.86 in 10.0 mi North 9.2 mph - N/A   Clear
12:53 PM 97.0 °F 96.9 °F 60.1 °F 29% 29.85 in 10.0 mi NE 8.1 mph - N/A   Clear
1:53 PM 100.0 °F 99.7 °F 57.9 °F 25% 29.84 in 10.0 mi East 8.1 mph - N/A   Clear
2:53 PM 102.9 °F 101.4 °F 55.0 °F 20% 29.83 in 10.0 mi East 9.2 mph - N/A   Clear
3:53 PM 102.9 °F 101.4 °F 55.0 °F 20% 29.82 in 10.0 mi ESE 8.1 mph - N/A   Clear
4:53 PM 102.9 °F 101.4 °F 55.0 °F 20% 29.80 in 10.0 mi East 8.1 mph 16.1 mph N/A   Clear
5:53 PM 102.0 °F 100.1 °F 54.0 °F 20% 29.80 in 10.0 mi East 5.8 mph - N/A   Clear
6:53 PM 102.0 °F 100.1 °F 54.0 °F 20% 29.79 in 10.0 mi East 5.8 mph - N/A   Clear
7:53 PM 100.0 °F 97.9 °F 54.0 °F 21% 29.78 in 10.0 mi ENE 6.9 mph - N/A   Clear
8:53 PM 90.0 °F 88.1 °F 55.9 °F 31% 29.84 in 10.0 mi NNE 8.1 mph - N/A   Clear
9:53 PM 86.0 °F 85.0 °F 57.9 °F 38% 29.87 in 10.0 mi North 15.0 mph 19.6 mph N/A   Clear
10:53 PM 86.0 °F 86.3 °F 62.1 °F 44% 29.87 in 10.0 mi NE 11.5 mph - N/A   Clear
11:53 PM 81.0 °F 81.7 °F 61.0 °F 50% 29.89 in 10.0 mi ENE 6.9 mph - N/A   Clear